Location: Bats
(43.6587°N, 0.4584°W)
Time: 03:32:12
(UTC+00:00)

YAOGAN 1 - Visible Passes

Search period start: 21 April 2026 00:00
Search period end: 01 May 2026 00:00
Orbit: 604 x 606 km, 97.8° (Epoch: 20 April)

Date Brightness Start Highest point End Pass type
(mag) Time Alt. Az. Time Alt. Az. Time Alt. Az.
21 Apr 5.3 19:23:11 10° SW 19:26:28 22° W 19:29:46 10° NW visible
22 Apr 5.5 19:36:39 10° SW 19:39:17 16° W 19:41:55 10° NW visible
23 Apr 5.7 19:50:37 10° WSW 19:52:07 12° W 19:53:37 10° WNW visible
29 Apr 5.3 19:29:14 10° SW 19:32:15 19° W 19:35:16 10° NW visible
30 Apr 5.5 19:42:52 10° WSW 19:45:03 14° W 19:47:16 10° WNW visible
